Location: Arboyeti
(42.1122°N, 44.6017°E)
Time: 04:10:18
(UTC+00:00)

X-37B - Pass Details

Date: 03 October 2021
Orbit: 385 x 389 km, 45.0° (Epoch: 17 October)

Event Time Altitude Azimuth Distance (km) Brightness Sun altitude
Exits shadow 00:52:47 29° 98° (E) 742 2.5 -24.3°
Drops below altitude 10° 00:54:30 10° 103° (ESE) 1,410 4.2 -23.9°
Sets 00:56:34 0° 105° (ESE) 2,264 5.4 -23.6°
